Weather in Alofi

Niue     19°03′27″S   169°55′19″W
temp.,
°C
wind,
m/s
gust,
m/s
humid.,
%
clouds,
%
prec.,
mm/h
press.,
hPa
HPBL,
m
16 september, thu
thu1601:00+26e897410 0.1 10161127
04:00+26e897372 0.1 10161141
07:00+26e89771 0.3 1017978
10:00+26e89765 0.0 10181006
13:00+26e897912 0.3 1016887
16:00+26e89798 0.1 1015868
19:00+26e998016 0.3 1017830
22:00+26e910808 0.4 1018884
17 september, fri
fri1701:00+26e89817 0.4 1016834
04:00+26e788112 0.1 1016745
07:00+26ene78829 0.4 1017761
10:00+26ene78802 2.6 1018766
13:00+26ene78799 3.2 1016853
16:00+26ene777914 0.1 1015743
19:00+26ene68810 0.1 1016712
22:00+26ene78820 0.3 1017713
18 september, sat
sat1801:00+26ne78794 0.6 1016779
04:00+26ne67807 0.0 1015746
07:00+26ne66817 0.4 1016683
10:00+26ne57790 0.8 1017759
13:00+26ne568022 1.0 1015698
16:00+26ne567917 0.0 1013787
19:00+26ne56819 0.8 1014635
22:00+26nne558173 2.8 1015401
19 september, sun
sun1901:00+26nnw447782 8.0 1014196
04:00+26wnw2270100 1.6 1013257
07:00+26s21706 2.6 1014251
10:00+26se22693 0.0 1015393
13:00+26ese22680 0.0 1014608
16:00+26sse33700 0.3 1012503
19:00+26se44720 0.4 1014678
22:00+26se44741 0.0 1015730
20 september, mon
mon2001:00+25ese447617 0.0 1014713
04:00+25ese44782 0.1 1012597
07:00+25ese44793 0.3 1014492
10:00+25ese44781 0.8 1015500
13:00+25se34790 2.9 1013346
16:00+25sse66782 1.3 1012639
19:00+25se777918 1.6 1014724
22:00+25se777928 0.9 1016743